WB4FAY-4 Weather Reports


time (UTC)temp
C
wind
direction
speed
KPH
gust
KPH
rain 1hr
cm
rain 24hr
cm
rain mn
cm
humidity
%
barometer
mb
20260507110517 15 342 4.8 16.1 0.00 0.00 0.03 97 1012.6
20260507110017 16 309 0.0 14.5 0.00 0.00 0.03 97 1012.6
20260507105517 16 337 11.3 24.1 0.00 0.00 0.03 97 1012.8
20260507105018 16 291 14.5 16.1 0.00 0.00 0.03 97 1012.9
20260507104518 16 38 4.8 17.7 0.00 0.00 0.03 97 1012.3
20260507104017 16 346 0.0 12.9 0.00 0.00 0.03 97 1012.1
20260507103517 16 37 4.8 9.7 0.00 0.00 0.03 97 1011.8
20260507103017 16 350 0.0 6.4 0.00 0.00 0.03 97 1011.8
20260507102517 16 16 1.6 12.9 0.00 0.00 0.03 97 1011.7
20260507102017 17 11 11.3 16.1 0.00 0.00 0.03 97 1011.6
20260507101518 17 329 4.8 17.7 0.00 0.00 0.03 97 1011.7
20260507101017 17 353 4.8 14.5 0.00 0.00 0.03 97 1011.6
20260507100517 17 323 4.8 17.7 0.00 0.00 0.03 97 1011.2
20260507100018 18 291 4.8 12.9 0.00 0.00 0.03 97 1011.2
20260507095517 18 329 6.4 8.0 0.00 0.00 0.03 98 1011.1
20260507095017 18 0 0.0 0.0 0.00 0.00 0.03 98 1011.0
20260507094518 18 323 0.0 8.0 0.00 0.00 0.03 98 1011.0
20260507094017 18 16 0.0 8.0 0.00 0.00 0.03 98 1011.1
20260507093518 18 18 1.6 1.6 0.00 0.00 0.03 98 1011.3
20260507093017 18 330 0.0 14.5 0.00 0.00 0.03 98 1011.3
20260507092517 18 11 0.0 1.6 0.00 0.00 0.03 98 1011.2
20260507092017 18 0 0.0 0.0 0.00 0.00 0.03 98 1011.2
20260507091517 18 18 0.0 1.6 0.00 0.00 0.03 98 1011.2
20260507091017 18 86 0.0 4.8 0.00 0.00 0.03 98 1011.2
20260507090517 18 347 0.0 3.2 0.00 0.00 0.03 97 1011.2
20260507090017 18 0 0.0 0.0 0.00 0.00 0.03 97 1011.1
20260507085518 18 0 0.0 0.0 0.00 0.00 0.03 97 1011.2
20260507085017 18 30 0.0 3.2 0.00 0.00 0.03 97 1011.0
20260507084517 18 82 0.0 3.2 0.00 0.00 0.03 97 1011.0
20260507084017 18 96 3.2 9.7 0.00 0.00 0.00 97 1011.2
20260507083517 18 85 0.0 8.0 0.00 0.00 0.00 97 1010.8
20260507083018 18 0 0.0 0.0 0.00 0.00 0.00 97 1010.8
20260507082517 18 0 0.0 0.0 0.00 0.00 0.00 97 1010.6
20260507082017 18 90 0.0 11.3 0.00 0.00 0.00 97 1010.7
20260507081517 18 322 0.0 3.2 0.00 0.00 0.00 97 1010.6
20260507081017 18 20 0.0 12.9 0.00 0.00 0.00 97 1010.9
20260507080517 18 4 0.0 6.4 0.00 0.00 0.00 97 1010.9
20260507080017 18 34 0.0 8.0 0.00 0.00 0.00 97 1010.9
20260507075517 18 107 1.6 3.2 0.00 0.00 0.00 97 1010.9
20260507075017 18 102 0.0 4.8 0.00 0.00 0.00 97 1010.9
20260507074517 19 88 1.6 9.7 0.00 0.00 0.00 97 1011.0
20260507074018 18 100 6.4 4.8 0.00 0.00 0.00 97 1010.9
20260507073517 19 102 1.6 12.9 0.00 0.00 0.00 97 1011.2
20260507073017 19 85 1.6 6.4 0.00 0.00 0.00 97 1011.0
20260507072517 19 76 0.0 6.4 0.00 0.00 0.00 97 1011.1
20260507072017 19 73 1.6 6.4 0.00 0.00 0.00 97 1010.9
20260507071517 19 112 1.6 8.0 0.00 0.00 0.00 97 1010.5
20260507071017 19 25 0.0 3.2 0.00 0.00 0.00 97 1010.6
20260507070517 19 117 1.6 9.7 0.00 0.00 0.00 97 1010.4
20260507070017 19 95 1.6 6.4 0.00 0.00 0.00 97 1010.4
20260507065517 19 349 0.0 8.0 0.00 0.00 0.00 97 1011.0
20260507065016 19 346 8.0 8.0 0.00 0.00 0.00 97 1010.7
20260507064517 19 89 3.2 6.4 0.00 0.00 0.00 97 1011.5
20260507064017 19 127 4.8 4.8 0.00 0.00 0.00 97 1011.7
20260507063518 19 79 0.0 6.4 0.00 0.00 0.00 97 1011.6
20260507063017 19 106 6.4 4.8 0.00 0.00 0.00 97 1011.6
20260507062517 19 82 1.6 6.4 0.00 0.00 0.00 97 1011.6
20260507062017 19 28 1.6 1.6 0.00 0.00 0.00 97 1011.8
20260507061517 19 64 0.0 8.0 0.00 0.00 0.00 97 1012.0
20260507061017 19 114 0.0 4.8 0.00 0.00 0.00 97 1012.0
20260507060517 19 89 1.6 9.7 0.00 0.00 0.00 97 1011.8
20260507060017 19 92 0.0 6.4 0.00 0.00 0.00 97 1012.1
20260507055517 19 93 1.6 6.4 0.00 0.00 0.00 97 1011.8
20260507055018 19 102 1.6 6.4 0.00 0.00 0.00 97 1012.1
20260507054517 19 95 0.0 6.4 0.00 0.00 0.00 97 1012.5
20260507054017 19 80 0.0 1.6 0.00 0.00 0.00 97 1012.8
20260507053518 19 112 0.0 1.6 0.00 0.00 0.00 97 1012.7
20260507053017 19 92 0.0 3.2 0.00 0.00 0.00 97 1012.7
20260507052517 19 99 1.6 1.6 0.00 0.00 0.00 97 1012.7
20260507052017 19 356 0.0 1.6 0.00 0.00 0.00 97 1012.7
20260507051518 19 131 0.0 4.8 0.00 0.00 0.00 97 1012.6
20260507051017 19 80 3.2 11.3 0.00 0.00 0.00 97 1012.4
20260507050517 19 79 6.4 4.8 0.00 0.00 0.00 97 1012.6
20260507050017 19 23 1.6 6.4 0.00 0.00 0.00 97 1012.3
20260507045517 19 356 0.0 6.4 0.00 0.00 0.00 97 1012.2
20260507045017 19 14 3.2 6.4 0.00 0.00 0.00 97 1012.3
20260507044517 20 18 0.0 6.4 0.00 0.00 0.00 97 1012.3
20260507044017 20 349 0.0 6.4 0.00 0.00 0.00 97 1012.4
20260507043517 20 28 0.0 3.2 0.00 0.00 0.00 97 1012.8
20260507043018 20 78 0.0 6.4 0.00 0.00 0.00 97 1012.6
20260507042517 20 96 0.0 4.8 0.00 0.00 0.00 97 1012.8
20260507042018 20 110 0.0 6.4 0.00 0.00 0.00 97 1013.1
20260507041517 20 79 0.0 6.4 0.00 0.00 0.00 97 1013.1
20260507041017 20 49 0.0 4.8 0.00 0.00 0.00 97 1012.9
20260507040517 20 82 3.2 8.0 0.00 0.00 0.00 97 1012.7
20260507040017 20 107 6.4 8.0 0.00 0.00 0.00 97 1012.6
20260507035517 20 78 6.4 11.3 0.00 0.00 0.00 97 1011.8
20260507035017 20 0 4.8 0.0 0.00 0.00 0.00 97 1012.7
20260507034517 20 0 0.0 0.0 0.00 0.00 0.00 97 1012.9
20260507034017 20 346 0.0 6.4 0.00 0.00 0.00 97 1013.0
20260507033517 20 96 0.0 4.8 0.00 0.00 0.00 96 1012.3
20260507033018 20 96 1.6 8.0 0.00 0.00 0.00 96 1012.2
20260507032517 20 72 3.2 8.0 0.00 0.00 0.00 96 1011.5
20260507032017 20 90 1.6 6.4 0.00 0.00 0.00 96 1012.4
20260507031517 20 97 6.4 8.0 0.00 0.00 0.00 96 1013.2
20260507031018 20 0 0.0 0.0 0.00 0.00 0.00 96 1013.9
20260507030517 20 0 0.0 0.0 0.00 0.00 0.00 96 1014.1
20260507030017 20 330 0.0 3.2 0.00 0.00 0.00 96 1013.8
20260507025517 20 157 1.6 4.8 0.00 0.00 0.00 96 1013.1
20260507025017 20 0 0.0 0.0 0.00 0.00 0.00 96 1013.6
20260507024518 20 89 0.0 6.4 0.00 0.00 0.00 96 1013.3
20260507024017 20 75 4.8 6.4 0.00 0.00 0.00 96 1013.1
20260507023516 20 86 1.6 11.3 0.00 0.00 0.00 96 1012.7
20260507023017 20 16 6.4 11.3 0.00 0.00 0.00 96 1012.6
20260507022517 20 68 3.2 12.9 0.00 0.00 0.00 96 1012.7
20260507022017 20 123 0.0 11.3 0.00 0.00 0.00 96 1012.7
20260507021523 20 85 4.8 11.3 0.00 0.00 0.00 96 1012.8
20260507021017 20 25 3.2 19.3 0.00 0.00 0.00 96 1012.8
20260507020517 20 85 4.8 14.5 0.00 0.00 0.00 96 1012.5
20260507020017 21 25 4.8 24.1 0.00 0.00 0.00 96 1012.5
20260507015517 21 349 4.8 11.3 0.00 0.00 0.00 96 1013.0
20260507015017 21 328 4.8 14.5 0.00 0.00 0.00 96 1012.7
20260507014518 22 27 9.7 9.7 0.00 0.00 0.00 96 1012.7
20260507014017 22 20 6.4 17.7 0.00 0.00 0.00 96 1012.5
20260507013517 22 3 6.4 4.8 0.00 0.00 0.00 97 1012.1
20260507013017 22 0 0.0 0.0 0.00 0.00 0.00 97 1011.8
20260507012518 22 0 0.0 0.0 0.00 0.00 0.00 97 1012.1
20260507012017 22 0 0.0 0.0 0.00 0.00 0.00 97 1011.8
20260507011518 22 0 0.0 0.0 0.00 0.00 0.00 97 1012.1
20260507011017 22 0 0.0 0.0 0.00 0.00 0.00 97 1011.5
20260507010517 22 23 0.0 0.0 0.00 0.00 0.00 97 1011.1
20260507010017 22 0 0.0 0.0 0.00 0.00 0.00 97 1011.5
20260507005517 22 233 0.0 0.0 0.00 0.00 0.00 96 1011.4
20260507005017 22 274 0.0 3.2 0.00 0.00 0.00 96 1011.8
20260507004517 22 0 1.6 0.0 0.00 0.00 0.00 96 1012.0
20260507004018 22 216 0.0 1.6 0.00 0.00 0.00 96 1012.1
20260507003517 22 232 0.0 1.6 0.00 0.00 0.00 96 1012.0
20260507003017 22 0 0.0 0.0 0.00 0.00 0.00 96 1011.7
20260507002517 22 215 0.0 1.6 0.00 0.00 0.00 96 1011.5
20260507002017 22 0 0.0 0.0 0.00 0.00 0.00 96 1011.5
20260507001517 22 196 0.0 8.0 0.00 0.00 0.00 96 1011.7
20260507001018 22 260 0.0 3.2 0.00 0.00 0.00 96 1011.8
20260507000517 23 359 0.0 0.0 0.00 0.00 0.00 96 1012.0
20260507000017 23 0 0.0 0.0 0.00 0.00 0.00 96 1011.6
20260506235518 22 284 0.0 3.2 0.00 0.00 0.00 96 1011.8
20260506235017 23 260 1.6 4.8 0.00 0.00 0.00 96 1011.7
20260506234518 22 0 0.0 0.0 0.00 0.00 0.00 96 1011.4
20260506234018 22 240 0.0 3.2 0.00 0.00 0.00 96 1011.7
20260506233517 23 275 1.6 3.2 0.00 0.00 0.00 96 1012.1
20260506233018 22 198 0.0 4.8 0.00 0.00 0.00 96 1012.0
20260506232517 22 236 1.6 4.8 0.00 0.00 0.00 96 1012.1
20260506232017 23 203 0.0 6.4 0.00 0.00 0.00 96 1012.4
20260506231517 22 198 3.2 9.7 0.00 0.00 0.00 96 1012.5
20260506231018 23 192 4.8 6.4 0.00 0.00 0.00 96 1012.5
20260506230517 22 226 0.0 4.8 0.00 0.00 0.00 96 1012.5
20260506230017 22 270 1.6 4.8 0.00 0.00 0.00 96 1012.6
20260506225517 22 189 1.6 6.4 0.00 0.00 0.00 96 1012.5
20260506225017 22 217 3.2 8.0 0.00 0.00 0.00 96 1012.4
20260506224517 22 222 0.0 1.6 0.00 0.00 0.00 96 1012.4
20260506224017 22 257 0.0 4.8 0.00 0.00 0.00 96 1012.3
20260506223517 22 196 1.6 9.7 0.00 0.00 0.00 96 1012.0
20260506223017 22 195 4.8 11.3 0.00 0.00 0.00 96 1012.1
20260506222518 22 212 3.2 6.4 0.00 0.00 0.00 96 1012.2
20260506222017 22 230 1.6 4.8 0.00 0.00 0.00 96 1012.2
20260506221517 22 186 1.6 11.3 0.00 0.00 0.00 96 1012.2
20260506221017 22 227 0.0 1.6 0.00 0.00 0.00 96 1012.3
20260506220518 22 215 0.0 6.4 0.00 0.00 0.00 96 1012.4
20260506220017 22 263 3.2 6.4 0.00 0.00 0.00 96 1012.4
20260506215517 22 237 3.2 4.8 0.00 0.00 0.00 96 1012.4
20260506215017 22 227 0.0 6.4 0.00 0.00 0.00 96 1012.4
20260506214517 22 196 4.8 11.3 0.00 0.00 0.00 96 1012.5
20260506214017 22 189 1.6 14.5 0.00 0.00 0.00 95 1012.5
20260506213517 22 200 1.6 11.3 0.00 0.00 0.00 95 1012.4
20260506213017 22 227 1.6 8.0 0.00 0.00 0.00 95 1012.4
20260506212517 22 198 3.2 4.8 0.00 0.00 0.00 95 1012.5
20260506212017 22 191 4.8 11.3 0.00 0.00 0.00 95 1012.6
20260506211517 22 196 4.8 11.3 0.00 0.00 0.00 94 1012.6
20260506211018 22 213 3.2 8.0 0.00 0.00 0.00 93 1012.6
20260506210517 23 189 6.4 9.7 0.00 0.00 0.00 93 1012.7
20260506210017 23 199 0.0 4.8 0.00 0.00 0.00 92 1012.8
20260506205517 23 198 0.0 8.0 0.00 0.00 0.00 91 1012.8
20260506205017 23 203 4.8 9.7 0.00 0.00 0.00 90 1012.9
20260506204517 23 299 6.4 4.8 0.00 0.00 0.00 88 1012.8
20260506204017 23 261 0.0 4.8 0.00 0.00 0.00 86 1012.7
20260506203517 23 271 4.8 4.8 0.00 0.00 0.00 85 1012.7
20260506203017 24 227 3.2 6.4 0.00 0.00 0.00 83 1012.8
20260506202518 24 195 3.2 6.4 0.00 0.00 0.00 81 1012.9
20260506202017 24 226 4.8 9.7 0.00 0.00 0.00 80 1012.9
20260506201523 25 208 1.6 6.4 0.00 0.00 0.00 80 1013.0
20260506201017 25 193 1.6 12.9 0.00 0.00 0.00 80 1013.0
20260506200517 25 196 6.4 11.3 0.00 0.00 0.00 79 1013.1
20260506200017 25 206 3.2 12.9 0.00 0.00 0.00 78 1013.1
20260506195518 25 258 1.6 9.7 0.00 0.00 0.00 78 1013.2
20260506195017 25 200 3.2 8.0 0.00 0.00 0.00 77 1013.4
20260506194517 25 251 3.2 8.0 0.00 0.00 0.00 77 1013.5
20260506194017 25 188 6.4 16.1 0.00 0.00 0.00 78 1013.6
20260506193517 25 254 4.8 9.7 0.00 0.00 0.00 78 1013.7
20260506193018 25 189 1.6 6.4 0.00 0.00 0.00 78 1013.8
20260506192517 25 193 4.8 11.3 0.00 0.00 0.00 78 1014.0
20260506192018 25 243 3.2 9.7 0.00 0.00 0.00 78 1014.0
20260506191518 25 236 0.0 8.0 0.00 0.00 0.00 78 1014.0
20260506191018 25 208 4.8 11.3 0.00 0.00 0.00 77 1014.0
20260506190518 25 206 4.8 12.9 0.00 0.00 0.00 77 1014.1
20260506190018 25 203 8.0 11.3 0.00 0.00 0.00 76 1014.1
20260506185517 25 257 1.6 8.0 0.00 0.00 0.00 77 1014.1
20260506185017 25 198 4.8 6.4 0.00 0.00 0.00 77 1014.2
20260506184517 25 191 4.8 6.4 0.00 0.00 0.00 77 1014.2
20260506184017 25 233 3.2 4.8 0.00 0.00 0.00 77 1014.2
20260506183517 25 257 3.2 4.8 0.00 0.00 0.00 77 1014.2
20260506183017 25 191 1.6 8.0 0.00 0.00 0.00 77 1014.2
20260506182517 24 186 4.8 9.7 0.00 0.00 0.00 77 1014.4
20260506182017 25 200 4.8 14.5 0.00 0.00 0.00 77 1014.5
20260506181518 25 188 4.8 16.1 0.00 0.00 0.00 76 1014.3
20260506181017 25 199 8.0 12.9 0.00 0.00 0.00 76 1014.4
20260506180517 25 193 6.4 14.5 0.00 0.00 0.00 75 1014.3
20260506180017 25 203 8.0 19.3 0.00 0.00 0.00 74 1014.4
20260506175517 25 216 1.6 11.3 0.00 0.00 0.00 75 1014.4
20260506175017 25 202 3.2 11.3 0.00 0.00 0.00 75 1014.5
20260506174517 25 195 6.4 17.7 0.00 0.00 0.00 74 1014.4
20260506174017 25 191 6.4 17.7 0.00 0.00 0.00 74 1014.6
20260506173517 25 299 9.7 14.5 0.00 0.00 0.00 74 1014.4
20260506173018 25 203 4.8 12.9 0.00 0.00 0.00 73 1014.6
20260506172517 25 215 8.0 12.9 0.00 0.00 0.00 73 1014.7
20260506172018 25 191 4.8 19.3 0.00 0.00 0.00 72 1014.7
20260506171517 25 202 4.8 16.1 0.00 0.00 0.00 71 1014.6
20260506171017 25 184 3.2 17.7 0.00 0.00 0.00 72 1014.6
20260506170518 25 202 8.0 14.5 0.00 0.00 0.00 71 1014.6
20260506170018 25 193 12.9 25.7 0.00 0.00 0.00 71 1014.5
20260506165518 25 200 9.7 17.7 0.00 0.00 0.00 72 1014.6
20260506165018 25 236 4.8 12.9 0.00 0.00 0.00 72 1014.5
20260506164518 25 189 8.0 16.1 0.00 0.00 0.00 72 1014.7
20260506164018 25 254 4.8 11.3 0.00 0.00 0.00 72 1014.7
20260506163518 25 195 9.7 16.1 0.00 0.00 0.00 73 1014.7
20260506163018 25 192 9.7 11.3 0.00 0.00 0.00 72 1014.7
20260506162518 25 203 4.8 24.1 0.00 0.00 0.00 71 1014.6
20260506162018 25 193 4.8 19.3 0.00 0.00 0.00 72 1014.7
20260506161518 25 181 4.8 12.9 0.00 0.00 0.00 72 1014.6
20260506161018 25 203 11.3 16.1 0.00 0.00 0.00 72 1014.7
20260506160518 25 278 8.0 9.7 0.00 0.00 0.00 72 1014.7
20260506160017 25 202 9.7 12.9 0.00 0.00 0.00 73 1014.5
20260506155518 25 193 4.8 12.9 0.00 0.00 0.00 73 1014.7
20260506155017 25 261 4.8 11.3 0.00 0.00 0.00 74 1014.8
20260506154517 24 253 8.0 11.3 0.00 0.00 0.00 75 1014.7
20260506154017 24 215 4.8 11.3 0.00 0.00 0.00 75 1014.8
20260506153517 24 236 4.8 9.7 0.00 0.00 0.00 76 1014.8
20260506153017 23 196 3.2 11.3 0.00 0.00 0.00 76 1014.8
20260506152517 23 208 3.2 12.9 0.00 0.00 0.00 78 1014.9
20260506152017 23 179 9.7 8.0 0.00 0.00 0.00 79 1015.0
20260506151517 23 292 3.2 8.0 0.00 0.00 0.00 78 1014.9
20260506151018 23 199 4.8 16.1 0.00 0.00 0.00 78 1015.0
20260506150517 23 185 9.7 12.9 0.00 0.00 0.00 78 1015.1
20260506150017 23 215 6.4 6.4 0.00 0.00 0.00 80 1015.1
20260506145517 22 189 3.2 12.9 0.00 0.00 0.00 79 1015.1
20260506145017 22 196 6.4 16.1 0.00 0.00 0.00 79 1015.3
20260506144517 22 226 6.4 12.9 0.00 0.00 0.00 79 1015.3
20260506144017 22 202 6.4 8.0 0.00 0.00 0.00 81 1015.2
20260506143517 22 213 4.8 12.9 0.00 0.00 0.00 81 1015.2
20260506143017 22 199 4.8 16.1 0.00 0.00 0.00 82 1015.1
20260506142518 22 196 6.4 14.5 0.00 0.00 0.00 82 1015.1
20260506142018 22 186 6.4 14.5 0.00 0.00 0.00 82 1015.1
20260506141518 22 202 4.8 17.7 0.00 0.00 0.00 83 1015.0
20260506141018 22 215 4.8 11.3 0.00 0.00 0.00 83 1015.1
20260506140518 21 301 3.2 8.0 0.00 0.00 0.00 84 1015.1
20260506140018 21 227 3.2 11.3 0.00 0.00 0.00 84 1015.1
20260506135518 21 198 4.8 8.0 0.00 0.00 0.00 84 1015.1
20260506135017 21 199 3.2 11.3 0.00 0.00 0.00 85 1015.2
20260506134517 21 268 11.3 9.7 0.00 0.00 0.00 86 1015.3
20260506134017 21 188 4.8 17.7 0.00 0.00 0.00 86 1015.3
20260506133517 21 195 4.8 14.5 0.00 0.00 0.00 86 1015.3
20260506133017 21 257 1.6 9.7 0.00 0.00 0.00 87 1015.3
20260506132517 21 193 3.2 9.7 0.00 0.00 0.00 87 1015.4
20260506132017 21 188 0.0 6.4 0.00 0.00 0.00 87 1015.4
20260506131517 21 196 1.6 11.3 0.00 0.00 0.00 87 1015.4
20260506131017 20 215 0.0 11.3 0.00 0.00 0.00 88 1015.5
20260506130517 20 127 1.6 8.0 0.00 0.00 0.00 88 1015.5
20260506130017 20 192 4.8 6.4 0.00 0.00 0.00 88 1015.5
20260506125518 20 202 0.0 9.7 0.00 0.00 0.00 88 1015.3
20260506125017 20 217 3.2 8.0 0.00 0.00 0.00 89 1015.3
20260506124516 20 184 3.2 12.9 0.00 0.00 0.00 89 1015.4
20260506124017 20 205 4.8 8.0 0.00 0.00 0.00 88 1015.3
20260506123517 20 302 6.4 9.7 0.00 0.00 0.00 89 1015.4
20260506123017 20 215 4.8 11.3 0.00 0.00 0.00 89 1015.2
20260506122517 20 215 4.8 11.3 0.00 0.00 0.00 88 1015.3
20260506122017 20 181 4.8 12.9 0.00 0.00 0.00 89 1015.2
20260506121517 20 195 4.8 12.9 0.00 0.00 0.00 88 1015.0
20260506121017 20 206 3.2 6.4 0.00 0.00 0.00 88 1014.9
20260506120517 20 196 6.4 11.3 0.00 0.00 0.00 88 1014.7
20260506120018 20 186 3.2 8.0 0.00 0.00 0.00 88 1014.7
20260506115517 20 226 3.2 8.0 0.00 0.00 0.00 88 1014.5
20260506115017 20 217 3.2 8.0 0.00 0.00 0.00 88 1014.4
20260506114517 20 199 4.8 9.7 0.00 0.00 0.00 87 1014.5
20260506114018 20 223 0.0 8.0 0.00 0.00 0.00 87 1014.4
20260506113517 20 219 3.2 6.4 0.00 0.00 0.00 87 1014.5
20260506113017 20 240 3.2 6.4 0.00 0.00 0.00 87 1014.2
20260506112517 20 240 1.6 8.0 0.00 0.00 0.00 87 1014.0
20260506112017 20 203 3.2 8.0 0.00 0.00 0.00 87 1014.0
20260506111518 20 195 4.8 8.0 0.00 0.00 0.00 87 1014.0
20260506111017 20 217 3.2 4.8 0.00 0.00 0.00 86 1013.8